Hourly Data Report for September 20, 2017

All times are specified in Local Standard Time (LST). Add 1 hour to adjust for Daylight Saving Time where and when it is observed.

ST. PETERS
PRINCE EDWARD ISLAND

46°27'01.000" N
62°34'33.000" W
29.70 m
8300562
71310
ZSP

Download Data

Hourly Data (September 2017)
Hourly Data Report for September 20, 2017
Temp Definition
°C
Dew Point Temp Definition
°C
Rel Hum Definition
%
Wind Dir Definition
10's deg

Wind Spd Definition
km/h
Visibility Definition
km
Stn Press Definition
kPa
Hmdx Definition


Wind Chill Definition


Weather Definition


TIME
00:00 19.3 18.3 94 17 12   101.85     LegendNANA
01:00 19.2 18.5 95 16 12   101.82     LegendNANA
02:00 19.2 18.5 96 17 12   101.76     LegendNANA
03:00 19.2 18.5 96 16 13   101.70     LegendNANA
04:00 19.2 18.5 95 18 12   101.68     LegendNANA
05:00 19.1 18.2 95 18 14   101.66     LegendNANA
06:00 18.9 18.0 95 18 12   101.63     LegendNANA
07:00 19.0 18.0 94 17 14   101.62     LegendNANA
08:00 19.4 18.1 92 18 11   101.62     LegendNANA
09:00 20.0 18.2 89 18 14   101.58 26   LegendNANA
10:00 20.7 18.4 87 20 12   101.56 27   LegendNANA
11:00 21.1 18.9 87 18 7   101.50 28   LegendNANA
12:00 21.8 18.9 84 25 6   101.43 28   LegendNANA
13:00 20.5 18.3 87 1 9   101.36 27   LegendNANA
14:00 20.2 18.1 88 2 11   101.32 26   LegendNANA
15:00 20.7 18.6 88 4 7   101.26 27   LegendNANA
16:00 20.3 18.1 87 3 11   101.25 26   LegendNANA
17:00 19.7 18.0 90 3 8   101.27     LegendNANA
18:00 17.1 16.2 94 3 12   101.30     LegendNANA
19:00 16.7 16.0 95 2 11   101.30     LegendNANA
20:00 16.3 15.7 96 4 10   101.31     LegendNANA
21:00 16.1 15.4 96 3 8   101.36     LegendNANA
22:00 15.9 15.2 95 1 10   101.36     LegendNANA
23:00 15.6 14.4 93 36 14   101.41     LegendNANA

Notes on Data Quality.

Legend

  • E = Estimated
  • M = Missing
  • NA = Not Available
  • ‡ = Partner data that is not subject to review by the National Climate Archives
Date modified: